Location: Pietradura
(44.4500°N, 10.4500°E)
Time: 12:24:57
(UTC+00:00)

Daily predictions for brighter satellites

Satellite Brightness Start Highest point End
(mag) Time Altitude Azimuth Time Altitude Azimuth Time Altitude Azimuth
Cosmos 1455 2.3 19:35:51 10° N 19:39:39 58° E 19:43:24 10° SSE
SPOT 3 Rocket 4.4 19:35:34 10° SE 19:40:16 36° ENE 19:45:01 10° N
Cosmos 1954 Rocket 4.4 19:36:01 10° NNW 19:41:15 68° WSW 19:46:24 10° S
Cosmos 1455 Rocket 3.7 19:40:14 10° NNW 19:44:29 57° W 19:48:43 10° S
ATLAS 2AS CENTAUR R/B 3.0 19:38:07 10° NW 19:45:07 66° WSW 19:51:38 10° SSE
Cosmos 2228 4.3 19:43:17 10° NNE 19:46:47 25° ENE 19:50:17 10° SE
Resurs 01 Rocket 1.7 19:48:37 10° SSE 19:53:03 83° WSW 19:57:33 10° NNW
Cosmos 1850 Rocket 4.2 19:50:20 10° NNW 19:55:29 59° ENE 20:00:34 10° SE
H-2A R/B 4.3 19:53:08 10° SSW 19:56:23 26° W 19:59:39 10° NW
Cosmos 2184 Rocket 4.3 19:51:56 10° N 19:57:57 51° ENE 20:03:58 10° SSE
GEOS 3 Rocket 3.6 19:53:01 10° SE 19:58:07 83° SW 20:03:17 10° NW
Cosmos 1331 Rocket 4.4 19:54:03 10° S 19:59:00 43° ESE 20:04:00 10° NNE
USA 32 4.1 19:56:10 10° S 20:01:22 89° WSW 20:06:38 10° N
SPOT 5 3.6 19:58:44 11° SE 20:02:28 31° ENE 20:06:18 10° N
Cosmos 1656 3.7 19:57:15 10° NNW 20:02:45 85° WSW 20:08:18 10° SSE
Terra 3.2 20:00:49 10° ESE 20:04:41 25° ENE 20:08:35 10° N
Spot 2 Rocket 4.2 20:01:19 11° SE 20:05:52 39° ENE 20:10:36 10° N
CZ-4B R/B 1.2 20:05:51 10° N 20:08:44 75° WNW 20:11:37 10° SSW
MetOp-B 4.2 20:03:30 10° SSE 20:08:51 82° ENE 20:14:14 10° NNW
SPOT 1/Viking Rocket 3.8 20:03:54 10° S 20:09:01 71° WSW 20:14:12 10° NNW
H-2A R/B 3.0 20:06:52 10° N 20:11:13 55° WNW 20:15:36 10° SSW
Cosmos 1536 Rocket 3.5 20:09:31 10° S 20:13:49 82° E 20:18:12 10° N
USA 245 3.2 20:12:24 12° SSE 20:16:02 62° ENE 20:19:18 10° N
CARTOSAT-1 3.5 20:12:59 10° SSE 20:17:15 86° ENE 20:21:36 10° NNW
Cosmos 1697 Rocket 2.8 20:13:35 10° NNW 20:19:11 64° ENE 20:23:48 15° SE
Cosmos 1980 Rocket 3.2 20:13:59 10° N 20:19:12 35° NE 20:23:43 13° ESE
SL-16 R/B 4.4 20:16:58 10° NNE 20:19:32 13° NE 20:22:06 10° ENE
Cosmos 1606 Rocket 4.3 20:16:05 10° N 20:20:06 36° ENE 20:23:02 16° SE
Cosmos 1452 Rocket 3.8 20:17:03 10° SSW 20:22:17 71° WNW 20:27:33 10° NNE
USA 276 4.1 20:20:52 10° WNW 20:23:31 27° N 20:26:10 10° ENE
ARIANE 5 R/B 3.9 20:21:13 14° ESE 20:24:11 27° ENE 20:27:53 10° N
Cosmos 2369 4.4 20:19:41 10° NNW 20:25:10 43° ENE 20:29:34 15° SE
ERS-1 Rocket 3.3 20:22:20 15° SE 20:26:18 51° ENE 20:31:11 10° N
Lacrosse 5 3.6 20:22:34 10° WNW 20:26:31 23° WSW 20:30:27 10° S
ATLAS 5 CENTAUR R/B 3.0 20:27:06 14° ESE 20:27:06 14° ESE 20:28:50 10° ENE
Cosmos 1110 Rocket 4.0 20:21:46 10° SSW 20:27:02 82° ESE 20:32:21 10° NNE
Cosmos 2344 4.5 20:18:35 10° NW 20:27:24 65° NE 20:38:14 14° SE
Cosmos 1900 4.4 20:24:19 10° NNW 20:29:29 78° NE 20:33:18 18° SE
COSMOS 2406 3.4 20:25:36 10° S 20:31:11 55° ESE 20:36:48 10° NNE
Cosmos 2074 Rocket 4.1 20:33:14 10° N 20:39:30 77° W 20:45:29 11° S
Cosmos 1833 Rocket 2.9 20:36:29 10° SSW 20:42:05 74° WNW 20:47:44 10° NNE
Cosmos 1726 Rocket 4.0 20:38:17 10° N 20:42:29 47° ENE 20:44:55 22° SE
Cosmos 968 Rocket 4.0 20:38:08 10° N 20:43:11 48° ENE 20:46:32 20° SE
Cosmos 1703 3.9 20:40:01 10° SSW 20:43:47 55° W 20:47:34 10° N
Cosmos 1408 3.6 20:45:32 24° ESE 20:46:23 26° E 20:49:19 10° NNE
Nadezhda 1 Rocket 3.9 20:42:52 10° S 20:48:56 83° E 20:55:03 10° N
Cosmos 192 4.3 20:47:33 10° S 20:52:24 70° ESE 20:57:18 10° NNE
USA 267 4.0 20:48:26 10° ENE 20:54:02 29° SE 20:58:23 15° S
Cosmos 1825 3.9 20:54:14 17° E 20:54:40 17° E 20:57:08 10° NE
Cosmos 2322 Rocket 4.3 20:51:10 10° N 20:54:42 16° NE 20:58:13 10° E
Cosmos 1295 Rocket 4.5 20:49:32 10° N 20:55:47 87° W 21:00:32 18° S
RESURS DK-1 3.7 20:52:38 10° NW 20:56:19 31° WSW 20:59:05 15° SSW
Cosmos 1867 3.8 20:56:48 10° NNW 21:02:15 64° NE 21:05:33 24° SE
Cosmos 2084 Rocket 3.3 21:01:15 10° NW 21:05:10 73° SW 21:06:56 32° SSE
Helios 1A Rocket 3.2 21:03:00 22° S 21:05:28 61° WSW 21:09:33 10° NNW
X-37B 1.0 21:03:39 10° W 21:06:14 38° SSW 21:06:14 38° SSW
Cosmos 2278 4.3 21:02:00 10° NNW 21:07:33 48° ENE 21:10:53 23° ESE
SL-8 R/B 4.3 21:03:50 10° WNW 21:08:23 42° SW 21:10:18 28° SSE
Meteor 1-11 4.2 21:07:11 22° S 21:10:46 64° E 21:16:17 10° NNE
Cosmos 2154 Rocket 4.4 21:06:21 10° NNW 21:12:28 61° W 21:17:21 16° S
Cosmos 1328 4.3 21:13:36 17° SSW 21:16:32 57° W 21:20:29 10° N
Cosmos 2082 Rocket 2.2 21:12:19 10° SSW 21:18:03 90° NNW 21:23:47 10° NNE
SAR-Lupe-4 4.1 21:17:19 10° NNE 21:20:43 39° E 21:21:02 37° ESE
CZ-2C R/B 4.1 21:17:19 10° N 21:21:49 62° WNW 21:25:23 15° SSW
Cosmos 1892 Rocket 3.6 21:21:09 24° SSW 21:23:45 76° W 21:28:09 10° N
USA 234 4.5 21:22:31 10° E 21:28:30 39° NNE 21:34:28 10° NW
SL-8 Rocket 4.0 21:23:45 10° N 21:30:00 73° E 21:33:12 30° SSE
Cosmos 2360 Rocket 4.2 21:26:05 10° N 21:30:07 19° NE 21:34:06 10° E
Cosmos 2058 Rocket 3.0 21:28:10 10° N 21:32:37 86° WSW 21:34:19 38° S
Cosmos 1626 Rocket 3.9 21:33:53 39° SE 21:34:50 46° E 21:39:01 10° NNE
SAR-Lupe-1 3.9 21:33:49 10° NNE 21:37:24 74° ESE 21:38:01 57° SSE
Cosmos 1633 3.9 21:38:43 25° E 21:38:43 25° E 21:41:17 10° NE
Cosmos 1992 Rocket 3.9 21:36:31 31° S 21:39:01 70° ESE 21:44:15 10° NNE
SPOT 5 4.3 21:37:57 15° SW 21:40:35 25° W 21:44:11 10° NW
Terra 2.8 21:39:42 22° SSW 21:42:15 38° W 21:46:42 10° NNW
Cosmos 1486 Rocket 4.1 21:38:08 10° NNW 21:43:22 70° ENE 21:45:24 37° SE
Cosmos 1892 3.0 21:44:17 37° SW 21:45:33 61° W 21:49:18 10° N
SJ 16-02 2.8 21:44:08 10° N 21:47:57 27° ENE 21:49:28 22° E
Cosmos 2366 rocket 4.0 21:43:21 10° N 21:49:44 86° E 21:52:47 34° S
FALCON 9 DEB 3.2 21:46:34 10° NW 21:49:49 63° NNE 21:50:07 58° ENE
Cosmos 2218 Rocket 4.0 21:48:16 10° N 21:54:43 88° W 21:57:46 34° S
ASTEX 1 3.6 21:51:28 10° N 21:56:26 69° W 21:58:45 32° SSW
USA 276 2.8 21:56:43 10° WNW 21:59:41 48° NNE 21:59:52 47° NNE
ADEOS Rocket 4.1 21:56:00 24° SE 22:00:10 46° ENE 22:07:28 10° N
ARIANE 5 R/B 3.9 21:58:45 24° SW 22:00:31 32° W 22:04:30 10° NNW
Cosmos 1980 Rocket 3.1 21:57:59 10° NW 22:03:13 39° WSW 22:05:29 27° SSW
GP-B 3.6 21:59:03 10° N 22:03:24 54° W 22:05:00 34° SW
SL-16 R/B 2.4 21:59:15 10° NNW 22:04:53 62° ENE 22:07:09 35° SE
Cosmos 2219 Rocket 4.5 22:02:49 10° N 22:06:28 17° NE 22:10:06 10° E
ATLAS 5 CENTAUR R/B 2.0 22:08:26 21° WSW 22:10:40 51° NW 22:14:43 10° NNE
SL-4 R/B 3.7 22:14:13 19° ENE 22:14:13 19° ENE 22:15:22 10° ENE
Cosmos 1354 Rocket 4.2 22:07:09 10° NNW 22:12:25 61° ENE 22:14:08 40° SE
ERS-2 4.4 22:11:49 10° NE 22:13:08 14° ENE 22:13:08 14° ENE
Okean 1-7 Rocket 4.3 22:19:49 32° SW 22:21:26 47° WNW 22:25:48 10° N
Cosmos 1503 Rocket 3.9 22:16:17 10° NNW 22:21:37 88° ENE 22:23:03 50° SSE
CENTAUR R/B 4.5 22:22:29 10° E 22:22:30 10° E 22:23:00 10° E
Cosmos 1758 Rocket 3.4 22:25:31 66° S 22:26:06 83° E 22:30:31 10° N
Cosmos 1869 4.0 22:22:37 10° NNW 22:26:19 41° W 22:26:47 39° WSW
Cosmos 1777 Rocket 4.4 22:23:00 10° NNW 22:28:13 55° ENE 22:29:53 39° ESE
Cosmos 1825 3.5 22:28:50 28° WSW 22:29:44 32° WNW 22:33:08 10° N
Spot 4 3.8 22:35:11 55° SSW 22:36:08 74° WSW 22:40:57 10° NNW
USA 267 3.2 22:30:55 10° NE 22:37:28 84° NW 22:44:02 10° SW
Cosmos 44 3.8 22:38:36 38° E 22:38:36 38° E 22:42:18 10° NE
Cosmos 1812 Rocket 3.7 22:34:06 10° NNW 22:38:31 62° W 22:39:08 55° SW
Cosmos 2322 Rocket 2.2 22:33:57 10° NNW 22:39:40 82° ENE 22:41:25 47° SE
Cosmos-2242 2.9 22:38:35 10° NNW 22:42:48 70° W 22:43:11 65° SW
BREEZE-M DEB (TANK) 4.3 22:40:01 10° WNW 22:43:37 68° NNE 22:58:42 10° ESE
Cosmos 1821 Rocket 4.0 22:38:04 10° N 22:44:17 76° W 22:46:22 44° S
Cosmos 1602 Rocket 4.4 22:48:54 34° WSW 22:49:55 40° WNW 22:54:01 10° N
Cosmos 2333 Rocket 3.0 22:52:10 10° NNW 22:57:44 47° ENE 23:00:27 28° ESE
ALOS 2 2.6 23:00:42 61° SW 23:01:03 64° WSW 23:05:25 10° NNW
Cosmos 375 4.3 23:01:30 80° SSE 23:01:38 82° SE 23:06:28 10° NE
BREEZE-M DEB (TANK) 4.4 22:47:59 10° WNW 23:03:03 74° NNE 23:06:22 18° E
Nadezhda 3 Rocket 4.2 23:02:12 38° SW 23:04:32 64° W 23:10:41 10° N
Cosmos 972 Rocket 4.2 22:59:45 10° NNW 23:05:00 70° ENE 23:06:40 45° SE
Cosmos 1340 Rocket 2.7 23:05:53 82° NE 23:05:53 82° NE 23:09:44 10° NNE
Gbstr 26 Del rocket 3.0 23:05:11 56° WSW 23:06:05 86° NNW 23:11:12 10° ENE
USA 234 3.2 23:07:03 26° SE 23:11:04 88° NE 23:17:40 10° NW
Cosmos 1606 3.5 23:07:50 10° NNW 23:11:18 41° W 23:11:18 41° W
Meteor 2-3 Rocket 4.4 23:12:54 36° SE 23:14:09 41° E 23:19:22 10° NNE
Cosmos 2360 Rocket 2.1 23:09:08 10° NNW 23:14:50 83° WSW 23:16:15 53° SSE
BREEZE-M DEB (TANK) 4.2 23:06:56 10° W 23:15:44 52° NNW 23:18:49 10° ENE
Cosmos 1953 Rocket 3.4 23:15:54 72° SW 23:16:16 80° W 23:20:43 10° N
CRYOSAT 2 4.3 23:19:59 62° SSE 23:20:48 81° E 23:25:43 10° N
Cosmos 2333 4.3 23:16:07 10° NNW 23:21:55 72° ENE 23:23:58 41° SE
Cosmos 1763 Rocket 4.0 23:21:39 42° SE 23:22:20 45° ESE 23:27:21 10° NNE
Cosmos 2151 4.1 23:23:01 31° E 23:23:15 31° E 23:27:04 10° NNE
Cosmos 1825 Rocket 4.3 23:24:44 37° W 23:25:22 40° WNW 23:29:29 10° N
SJ 16-02 2.5 23:22:34 10° NW 23:26:24 31° W 23:26:24 31° W
Cosmos 2058 3.8 23:28:04 37° W 23:28:33 38° WNW 23:32:29 10° N
PSLV R/B 3.6 23:23:56 10° NNE 23:28:42 83° ESE 23:29:18 67° S
Cosmos 1833 4.2 23:27:13 47° SW 23:28:52 79° WNW 23:34:30 10° NNE
Cosmos 1782 3.8 23:25:44 10° N 23:29:24 35° ENE 23:29:46 34° E
Cosmos 990 Rocket 4.3 23:30:36 10° NNW 23:35:43 61° ENE 23:37:18 41° SE
USA 290 3.8 23:35:57 10° N 23:38:48 31° ENE 23:38:48 31° ENE
Cosmos 2221 2.5 23:35:42 10° NNW 23:40:02 70° W 23:40:15 69° WSW
Cosmos 2237 Rocket 4.3 23:35:40 10° N 23:40:02 22° NE 23:44:23 10° E
COSMOS 2428 3.3 23:38:43 10° NNW 23:44:21 54° ENE 23:47:19 27° SE
Cosmos 2297 Rocket 4.0 23:44:07 16° ESE 23:45:31 18° E 23:49:09 10° ENE
ADEOS Rocket 4.2 23:42:56 31° SW 23:45:37 41° W 23:52:51 10° NNW
ISS -2.8 23:47:44 44° NE 23:47:44 44° NE 23:50:11 10° ENE
ERS-2 3.2 23:44:10 10° N 23:47:29 35° WNW 23:47:29 35° WNW
Cosmos 1842 Rocket 3.4 23:43:29 10° N 23:47:59 78° W 23:48:20 72° SSW
SL-16 R/B 3.7 23:44:22 10° NW 23:48:27 21° W 23:49:00 20° WSW
COSMOS 2487 3.4 23:49:36 41° N 23:49:36 41° N 23:51:46 10° NNE
Nimbus 7 Rocket 4.5 23:44:09 10° N 23:50:05 71° WNW 23:52:10 42° SW
Cosmos 468 Rocket 4.0 23:49:02 54° SSE 23:50:05 69° ESE 23:55:23 10° NNE
Cosmos 2219 Rocket 2.1 23:45:35 10° NNW 23:51:18 85° ENE 23:53:13 44° SSE
SL-4 R/B 3.1 23:49:35 21° WNW 23:51:24 36° NNW 23:54:55 10° NE
SL-27 R/B 3.1 23:53:43 47° NNW 23:53:43 47° NNW 23:56:22 10° NNE
Cosmos 540 Rocket 3.8 23:52:58 45° SE 23:53:51 51° ESE 23:58:50 10° NNE
ATLAS 5 CENTAUR R/B 4.5 23:54:56 10° NW 23:56:21 11° NNW 23:57:50 10° N
